STARLINK-34906, 65896

Orbit data source: Space-Track

STARLINK-34906, 65896 is a payload satellite owned by SpaceX/Seattle (US) in LEO that was launched on Tue, 07 Oct 2025 UTC via an FALCON 9 launch vehicle from the Air Force Eastern Test Range (AFETR). Payload-class satellites include a variety of spacecraft equipped with specific instruments for various scientific and technological missions. These include communications satellites like Starlink; space stations such as the ISS; scientific satellites like the Hubble; Earth observation satellites from companies like Planet Labs, Umbra, and HawkEye 360; GPS; miniature CubeSats for education and research; and military/defense satellites.

Loading next visibility...
Identifier
65896, 2025-224Q
Orbit
LEO
Country
Flag of USUS
Related business
Manufacturer
SpaceX/Seattle
Mission
Operational Commercial Communications
Bus & Motor
STARLINK V2MO, Unknown motor
Mass
575 kg wet, ~530 kg dry
Launch date (UTC)
2025-10-07 (4 months ago)
Launch vehicle
FALCON 9
Launch site
Air Force Eastern Test Range (AFETR)
Object type
Payload
Rocket body
Debris
Shape & HBR
Box + 2 Pan, 17.7 m
Radar Cross Section
36.964 m²

Expand to show TLE details & history
Last TLE update: 19 hours ago

TLE from 19 hours ago
0 STARLINK-34906
1 65896U 25224Q   26039.55962106  .00027225  00000-0  92843-3 0  9990
2 65896  53.1594 146.7005 0001233  74.4338 285.6798 15.30183778 20419
Epoch: 2026-02-08T13:25Z
TLE epoch observation values (Epoch: 2026-02-08T13:25:51.259Z)
Latitude
-0.00009°
Longitude
166.56981°
Altitude
475.935 km
Speed
7.629 km/s
True Right ascension
09h 46m 48s
True Declination
0° 00' 00"
Sunlit
Object was in full shadow at epoch
Visualization orbit readout
Latitude
Unknown
Longitude
Unknown
Altitude
Unknown
Speed
Unknown
Apparent Right ascension
Unknown
Apparent Declination
Unknown
Sunlit
N/A
Visualization observer readout
Local Sidereal Time
11:05:17
Azimuth
Unknown
Elevation
Unknown
Doppler factor
Unknown
Orbital elements
Apogee altitude
476.365 km
Perigee altitude
474.675 km
Semi-major axis
6,853.657 km
Eccentricity
0.00012
Inclination
53.1594°
RAAN
146.7005°
Arg. of periapsis
74.4338°
True anomaly
285.6662°
Mean anomaly
285.6798°
Eccentric anomaly
285.673°
Mean motion
3.82525 °/min
Orbital period
94.11 mins
BSTAR
0.00092843
Loading maneuver chart data...
Computing Atmospheric mass density...
Loading historical data...
Loading historical data...
Loading historical data...
Loading historical data...
Loading historical data...
Loading historical data...
Loading historical data...

Documentation

Showing up to 5 results
|